Temp
58 61 57 64 63 60 59 57 57 60 59 57 60 62 66 70 69 67 69 72 73 73 77 76 73 70 67 67 66 65 64 65 65 63 62 61 55 55 57 58 57 57 57 57
58 55 64 59 58 57 56 56 57 59 55 56 59 58 65 67 67 71 72 73 74 75 76 74 71 68 66 65 64 64 64 64 64 65 64 64 60 55 58 55 54 54 54 54
58 60 58 57 54 53 55 54 56 55 54 55 54 57 63 67 65 66 69 72 74 75 75 77 69 67 66 65 64 63 63 64 63 64 63 57 52 51 51 51 50 49 51 49
56 58 54 53 53 57 53 57 55 52 52 50 53 50 61 66 66 65 70 72 73 72 73 73 73 66 65 65 65 64 63 63 63 63 59 58 53 51 54 53 50 49 49 48
55 50 50 51 55 56 54 53 53 51 51 47 51 46 58 56 60 65 69 71 74 74 73 71 69 67 68 64 63 62 62 61 61 61 61 60 58 58 55 52 48 47 47 47
53 53 55 56 51 55 52 51 50 49 49 42 53 49 56 64 63 66 68 71 72 73 70 68 68 64 64 63 60 60 60 59 60 59 60 59 58 58 56 50 47 46 47 45
49 50 52 53 50 51 52 52 44 40 37 41 45 44 55 63 64 64 68 71 70 67 68 67 65 61 60 58 57 58 58 57 59 58 59 59 59 56 56 55 52 48 47 47
45 43 50 54 56 52 49 53 45 35 36 46 38 41 55 61 64 61 64 66 66 63 65 66 66 63 59 56 56 56 56 56 58 57 58 58 59 57 58 56 56 53 51 48
45 44 49 50 54 58 48 43 55 45 32 37 49 55 62 59 60 62 61 64 64 64 64 64 65 62 59 56 55 55 55 55 56 56 57 57 57 56 55 53 55 52 50 46
52 44 46 48 53 51 52 55 43 44 33 33 47 48 51 58 64 65 61 63 65 65 65 65 63 60 57 56 55 55 55 54 55 55 56 54 54 54 51 50 50 49 48 46
56 47 43 46 46 47 47 46 46 47 43 38 38 49 65 63 65 61 63 60 63 63 62 63 61 58 56 54 53 54 54 53 52 52 54 53 52 51 50 50 51 48 46 41
53 47 41 46 50 51 54 52 51 42 36 41 41 46 58 62 62 58 60 59 61 61 61 60 59 56 54 52 52 52 53 52 52 52 53 51 52 51 49 48 50 47 44 41
51 41 33 39 43 43 43 48 50 51 38 37 36 44 59 58 59 59 58 61 61 59 60 60 57 57 56 55 53 52 52 51 50 51 51 50 50 48 48 47 48 45 43 40
48 42 38 38 46 47 39 44 47 47 38 41 43 49 58 60 59 61 61 62 62 61 60 62 60 60 58 56 54 52 52 52 49 49 49 48 48 47 46 45 44 42 41 39
45 34 40 44 47 46 44 44 45 43 47 42 47 49 55 60 61 64 65 65 65 62 61 59 58 58 60 55 52 51 52 50 49 47 47 48 47 47 45 42 40 39 38 38
43 33 36 34 42 42 40 44 44 45 47 49 50 50 61 63 64 62 61 61 61 63 65 66 59 56 55 56 53 52 51 49 48 46 45 47 46 43 40 39 38 36 36 36
37 34 32 30 39 37 31 37 42 45 49 50 44 52 58 58 59 60 61 61 59 62 64 64 62 61 58 58 55 52 52 50 44 42 41 40 40 38 38 37 36 34 35 35
34 33 32 31 32 25 40 51 50 46 49 52 50 53 56 57 60 59 61 60 60 61 59 61 62 62 61 56 54 53 47 44 40 38 37 37 37 36 37 36 35 34 34 33
40 34 30 28 29 36 41 45 44 42 43 52 51 54 56 58 56 57 61 62 60 61 61 58 58 55 55 53 51 44 40 40 38 38 37 37 36 35 35 34 34 34 33 32
41 41 33 31 25 24 42 51 48 49 35 51 52 51 52 54 45 53 58 52 54 53 50 49 48 47 47 49 45 39 38 37 36 38 38 38 36 34 33 34 34 34 33 32
30 30 27 28 27 33 43 49 47 32 37 38 45 51 50 48 53 58 49 50 48 45 43 44 44 45 44 43 38 37 36 35 37 36 35 34 35 33 34 34 34 33 31 30
31 30 29 30 28 26 41 41 39 39 40 40 44 46 45 46 45 45 46 45 45 43 41 41 41 41 39 36 36 34 34 34 34 33 33 33 33 33 33 32 32 32 29 28
28 36 33 35 36 40 42 41 44 41 38 41 43 47 45 43 44 45 44 43 41 39 38 35 34 33 33 32 34 33 32 32 30 30 29 30 32 32 32 31 30 30 30 29
33 39 33 31 38 41 42 45 45 42 41 44 44 41 40 41 44 43 41 40 38 33 32 30 31 30 29 30 30 30 30 30 29 29 29 30 30 31 31 32 32 31 31 29
36 36 34 33 39 43 44 43 42 41 42 40 40 40 40 41 41 42 38 34 32 31 30 30 29 28 27 29 30 31 31 32 31 30 29 30 31 31 31 31 31 31 32 33
37 35 32 31 41 40 42 43 40 38 39 39 38 38 38 37 37 35 32 32 31 30 29 28 27 26 26 26 26 28 32 32 31 29 30 31 31 31 30 29 27 33 33 34
MSLP
1017.85 1017.34 1016.81 1016.40 1017.03 1017.27 1016.98 1016.88 1016.68 1016.86 1017.53 1017.49 1016.28 1014.84 1014.09 1013.73 1013.50 1013.22 1012.91 1012.42 1012.18 1012.07 1012.31 1013.28 1014.14 1015.16 1016.08 1016.82 1017.43 1017.94 1018.55 1018.97 1019.52 1019.93 1020.35 1020.82 1021.19 1021.64 1021.90 1022.08 1022.29 1022.40 1022.82 1023.16
1017.96 1017.13 1016.73 1017.37 1017.74 1017.74 1017.61 1017.33 1017.05 1017.15 1017.77 1017.77 1016.19 1014.26 1013.43 1013.03 1012.09 1011.80 1011.41 1010.96 1010.89 1010.87 1011.25 1012.16 1013.34 1014.34 1015.02 1015.54 1016.32 1017.10 1017.57 1018.12 1018.64 1019.05 1019.41 1019.89 1020.60 1021.31 1021.52 1022.06 1022.35 1022.43 1022.77 1023.01
1016.98 1016.98 1017.31 1017.72 1018.09 1018.05 1017.75 1017.58 1017.45 1017.66 1017.99 1017.69 1016.62 1013.82 1012.01 1011.37 1011.25 1011.12 1010.42 1010.16 1010.00 1009.67 1009.77 1010.83 1012.27 1013.18 1014.08 1014.61 1015.17 1015.79 1016.66 1017.46 1018.20 1018.66 1019.29 1020.35 1021.11 1021.67 1021.80 1022.02 1022.19 1022.45 1022.74 1023.06
1017.76 1017.66 1017.83 1018.03 1017.92 1017.90 1017.70 1017.52 1017.85 1018.11 1018.25 1017.33 1017.05 1013.24 1011.42 1010.61 1010.29 1010.04 1009.32 1008.96 1008.57 1008.72 1009.27 1010.19 1010.95 1012.13 1012.76 1013.16 1014.24 1015.21 1016.02 1016.74 1017.44 1018.14 1018.77 1018.98 1019.39 1020.16 1020.50 1020.98 1021.70 1022.37 1022.66 1022.82
1017.00 1017.53 1017.98 1018.01 1017.68 1017.97 1017.92 1018.03 1018.29 1018.53 1018.26 1017.85 1016.44 1015.29 1010.72 1010.46 1009.16 1008.80 1008.09 1007.85 1007.84 1008.08 1008.87 1009.53 1010.24 1010.93 1011.47 1012.55 1013.29 1014.28 1015.23 1015.94 1016.58 1017.19 1017.74 1018.12 1018.63 1019.29 1020.14 1020.80 1021.50 1022.21 1022.66 1022.87
1017.52 1017.99 1017.86 1017.73 1018.35 1018.42 1018.73 1018.76 1018.95 1019.06 1018.69 1017.18 1014.92 1014.34 1009.80 1009.08 1008.19 1008.01 1007.61 1007.46 1007.67 1008.04 1008.75 1009.34 1010.06 1010.94 1011.65 1012.62 1013.26 1013.73 1014.35 1015.08 1015.89 1016.49 1016.81 1017.20 1017.66 1018.40 1019.32 1020.23 1021.05 1021.77 1022.35 1022.90
1017.62 1017.66 1017.83 1017.95 1018.31 1018.98 1018.59 1018.42 1018.57 1018.57 1018.24 1015.61 1015.05 1014.12 1009.15 1008.91 1008.20 1007.97 1007.79 1007.29 1007.89 1008.40 1008.77 1009.19 1009.77 1010.56 1011.43 1012.23 1013.16 1013.74 1013.84 1014.27 1015.19 1016.00 1016.36 1016.67 1017.10 1017.89 1018.41 1018.96 1019.89 1020.87 1021.69 1022.22
1016.56 1016.84 1017.11 1017.07 1016.59 1017.22 1018.08 1017.38 1016.86 1016.35 1016.73 1015.39 1015.34 1012.25 1008.07 1008.57 1008.54 1008.06 1008.03 1007.68 1008.01 1008.56 1008.99 1009.17 1009.40 1010.21 1011.14 1011.87 1012.60 1013.24 1013.85 1013.90 1014.49 1015.37 1015.84 1016.53 1016.99 1017.62 1017.98 1018.50 1019.02 1019.90 1020.44 1020.89
1015.80 1016.14 1016.42 1016.56 1016.33 1016.45 1017.61 1017.37 1016.30 1016.46 1017.25 1016.38 1013.20 1009.73 1008.15 1008.38 1007.97 1007.63 1007.52 1007.67 1007.55 1008.21 1008.56 1008.91 1009.33 1009.99 1010.78 1011.60 1012.39 1012.86 1013.30 1013.76 1014.13 1014.73 1015.23 1015.74 1016.31 1016.94 1017.34 1018.11 1018.85 1019.57 1020.14 1020.77
1015.34 1015.87 1016.36 1016.77 1016.87 1016.84 1016.30 1016.09 1016.69 1016.71 1016.00 1014.68 1011.57 1010.09 1007.58 1007.36 1007.15 1006.80 1007.21 1007.42 1007.52 1007.65 1008.01 1008.61 1009.32 1010.06 1010.70 1011.38 1011.83 1012.51 1012.94 1013.37 1013.87 1014.49 1014.82 1015.39 1015.95 1016.41 1017.02 1017.74 1018.54 1019.15 1019.87 1020.75
1015.43 1016.14 1016.95 1017.01 1016.22 1015.77 1016.60 1016.14 1015.89 1015.50 1014.99 1013.45 1011.65 1008.63 1007.08 1006.77 1006.81 1007.19 1007.30 1007.56 1007.57 1007.67 1007.86 1008.39 1009.18 1009.99 1010.81 1011.60 1012.19 1012.01 1012.39 1012.90 1013.39 1014.02 1014.42 1014.92 1015.26 1015.85 1016.53 1017.16 1017.91 1018.73 1019.66 1020.39
1015.69 1016.07 1016.23 1015.94 1015.87 1015.70 1015.10 1014.18 1014.56 1014.45 1014.05 1013.65 1012.09 1008.43 1007.21 1007.37 1007.28 1007.51 1007.52 1007.65 1007.71 1008.17 1008.33 1008.63 1009.23 1009.86 1010.63 1011.23 1011.69 1011.94 1012.09 1012.23 1012.77 1013.24 1013.75 1014.41 1014.90 1015.38 1015.97 1016.57 1017.29 1018.23 1018.99 1019.90
1016.16 1016.66 1016.68 1015.78 1016.31 1016.19 1015.25 1014.26 1013.95 1013.69 1014.05 1012.63 1011.57 1008.55 1007.27 1007.56 1007.49 1007.51 1007.70 1007.56 1007.75 1007.97 1008.21 1008.56 1009.31 1009.81 1010.29 1010.82 1011.14 1011.41 1011.90 1011.68 1012.12 1012.81 1013.13 1013.64 1014.16 1014.78 1015.34 1016.09 1016.85 1017.88 1018.63 1019.44
1016.52 1016.58 1016.19 1014.54 1013.53 1013.97 1014.32 1013.59 1013.24 1013.14 1012.97 1011.18 1010.16 1008.08 1006.55 1006.83 1007.12 1007.02 1007.16 1007.06 1007.46 1007.65 1007.89 1008.42 1008.66 1008.81 1009.29 1009.99 1010.29 1010.79 1011.19 1011.35 1011.70 1012.18 1012.70 1012.99 1013.35 1014.00 1014.80 1015.73 1016.57 1017.48 1018.22 1019.04
1017.37 1016.85 1016.50 1014.78 1014.10 1014.09 1013.62 1013.04 1012.90 1012.64 1010.91 1010.46 1008.14 1008.24 1005.55 1005.93 1006.57 1006.58 1006.72 1006.57 1006.71 1007.00 1007.20 1007.48 1007.68 1007.94 1008.52 1009.25 1009.64 1010.37 1010.53 1010.56 1011.03 1011.69 1012.04 1012.20 1013.01 1013.76 1014.47 1015.37 1016.29 1017.17 1017.89 1018.55
1017.76 1017.23 1016.91 1015.49 1014.46 1014.39 1013.75 1013.34 1012.51 1011.13 1010.05 1009.81 1008.31 1007.03 1005.26 1005.54 1005.77 1006.15 1006.24 1006.68 1006.58 1006.30 1006.10 1005.86 1006.49 1007.03 1007.51 1007.92 1008.45 1008.89 1009.19 1009.63 1010.41 1010.81 1011.09 1011.79 1012.47 1013.28 1014.10 1015.01 1015.99 1016.89 1017.51 1018.16
1017.69 1017.07 1016.88 1015.46 1014.50 1014.15 1012.86 1011.55 1011.03 1010.86 1009.93 1008.72 1008.03 1005.61 1005.27 1005.41 1005.21 1005.51 1005.61 1006.13 1005.87 1005.70 1005.55 1005.53 1005.69 1005.86 1006.23 1006.48 1006.92 1007.49 1008.03 1008.98 1009.68 1010.13 1010.69 1011.31 1012.04 1012.81 1013.59 1014.63 1015.56 1016.43 1017.17 1017.86
1017.97 1017.46 1016.97 1015.33 1014.81 1012.80 1010.59 1010.12 1009.64 1009.07 1008.42 1008.13 1007.74 1006.45 1005.04 1004.68 1004.99 1005.35 1005.61 1005.73 1005.29 1005.37 1005.47 1005.40 1005.33 1005.40 1005.79 1006.13 1006.52 1006.93 1007.66 1008.35 1009.13 1009.81 1010.45 1011.20 1011.89 1012.56 1013.24 1014.04 1014.86 1015.86 1016.79 1017.47
1016.50 1017.08 1016.30 1015.39 1013.48 1011.90 1010.91 1009.72 1009.53 1008.87 1007.81 1007.85 1007.60 1006.22 1005.25 1004.82 1006.09 1004.71 1004.64 1005.21 1005.04 1005.16 1005.12 1005.31 1005.56 1005.66 1005.74 1005.97 1006.28 1006.94 1007.70 1008.25 1008.93 1009.38 1009.94 1010.59 1011.28 1012.06 1012.96 1013.75 1014.42 1015.12 1016.14 1017.14
1015.01 1015.04 1015.37 1014.49 1012.84 1010.95 1009.74 1008.59 1009.06 1009.28 1008.16 1006.66 1007.13 1006.41 1005.74 1005.47 1006.27 1003.82 1004.77 1004.94 1005.32 1005.61 1006.16 1006.31 1006.49 1006.39 1006.26 1006.19 1006.52 1006.90 1007.43 1008.09 1008.55 1009.07 1009.71 1010.48 1011.18 1011.81 1012.49 1013.28 1014.29 1015.12 1015.77 1016.42
1014.85 1014.63 1013.81 1012.95 1011.80 1010.43 1009.37 1008.24 1009.22 1009.66 1009.17 1008.07 1007.12 1006.18 1005.77 1006.15 1005.57 1004.80 1005.65 1006.07 1006.57 1006.92 1007.27 1007.36 1007.30 1007.16 1007.01 1006.97 1007.14 1007.43 1007.75 1007.89 1008.27 1008.90 1009.57 1010.36 1011.02 1011.67 1012.43 1013.41 1014.08 1015.12 1016.05 1016.98
1013.97 1013.65 1013.13 1012.25 1011.08 1009.77 1009.37 1009.43 1009.56 1009.83 1009.62 1010.02 1009.36 1008.40 1007.74 1007.14 1006.90 1006.48 1006.64 1006.87 1007.15 1007.42 1007.75 1007.99 1007.98 1008.01 1008.06 1007.95 1007.76 1007.85 1008.29 1008.74 1009.06 1009.41 1009.92 1010.49 1011.03 1011.83 1012.70 1013.50 1014.42 1015.30 1016.09 1017.12
1013.05 1012.37 1012.14 1011.79 1010.33 1009.82 1009.84 1009.92 1009.65 1009.92 1010.42 1010.01 1009.96 1008.99 1008.46 1008.21 1007.46 1007.41 1007.22 1007.50 1007.98 1008.19 1008.57 1008.67 1008.54 1008.51 1008.77 1008.87 1008.68 1008.66 1008.95 1009.29 1009.61 1010.08 1010.70 1011.19 1011.56 1012.10 1012.68 1013.35 1014.40 1015.39 1016.24 1016.92
1013.04 1012.46 1011.79 1011.80 1010.19 1009.84 1009.49 1009.52 1009.75 1010.02 1009.81 1009.44 1008.84 1008.40 1008.61 1008.73 1008.12 1007.89 1007.89 1008.15 1008.69 1009.08 1009.54 1009.57 1009.56 1009.26 1009.22 1009.42 1009.38 1009.55 1009.81 1010.02 1010.29 1010.74 1011.32 1011.85 1012.18 1012.68 1013.31 1013.82 1014.29 1015.03 1015.84 1016.65
1012.95 1012.33 1011.49 1010.87 1010.19 1009.68 1009.31 1009.49 1009.93 1009.97 1009.75 1009.14 1008.56 1008.42 1008.58 1009.03 1008.81 1008.60 1008.18 1008.50 1009.10 1009.87 1010.10 1009.99 1010.09 1010.17 1010.32 1010.01 1009.75 1010.21 1010.47 1010.62 1010.91 1011.14 1011.67 1012.13 1012.57 1012.92 1013.64 1014.21 1014.60 1015.06 1015.43 1015.73
1012.05 1011.52 1011.20 1010.20 1010.11 1010.15 1009.64 1009.83 1010.17 1010.00 1009.72 1009.56 1009.24 1008.67 1008.13 1009.00 1009.21 1008.61 1008.47 1009.13 1010.03 1010.24 1010.05 1010.43 1010.94 1011.33 1011.37 1010.82 1010.69 1011.02 1010.90 1011.05 1011.42 1011.64 1012.01 1012.35 1012.73 1013.23 1013.84 1014.47 1015.06 1015.48 1015.96 1016.33
Wind_Speed
2 6 9 14 9 1 3 2 5 3 1 4 12 19 18 17 16 18 18 19 18 20 17 14 15 17 17 16 17 18 17 16 12 10 10 8 6 5 5 5 7 8 7 9
5 10 12 6 7 5 5 8 12 7 2 5 12 23 19 19 22 19 21 21 21 21 17 15 15 16 19 19 19 18 19 18 15 11 10 7 8 3 4 5 6 6 8 10
12 4 6 8 7 9 9 12 9 9 1 7 11 17 15 10 15 17 21 22 23 24 23 17 15 18 17 20 21 20 20 18 16 15 9 6 5 3 4 6 5 5 8 7
8 3 5 8 9 12 14 12 8 6 5 7 2 11 18 17 17 15 18 17 20 20 19 16 14 16 18 20 17 18 18 19 17 18 14 16 9 8 6 6 5 6 8 8
6 10 12 11 8 13 2 5 6 2 5 5 9 8 8 4 13 16 20 19 19 17 13 13 15 16 18 15 17 17 18 19 18 18 17 14 14 9 7 6 8 7 6 7
1 2 5 4 3 4 12 7 5 3 1 10 9 11 9 11 8 5 6 9 10 9 8 9 7 6 9 9 13 15 18 19 19 19 20 20 18 15 11 10 8 7 6 6
5 8 3 3 7 4 4 9 4 5 6 12 4 7 14 7 11 10 12 17 5 2 5 5 5 7 9 11 13 13 17 19 19 19 19 19 19 17 17 15 12 12 9 8
12 11 13 10 15 9 12 11 8 8 6 8 2 13 8 10 10 14 14 18 11 9 7 8 7 6 8 10 12 14 16 17 18 18 19 16 17 11 12 13 11 11 11 10
8 8 1 3 4 13 8 12 9 7 1 4 10 20 21 15 17 16 18 14 14 10 10 11 9 9 8 9 12 14 15 15 17 18 17 18 16 17 14 12 12 9 8 7
3 8 1 3 3 1 10 7 6 5 7 11 14 16 17 5 11 10 7 10 11 11 10 9 7 5 5 8 10 12 13 14 15 17 17 15 16 15 10 10 13 12 10 12
8 4 3 4 11 14 7 12 5 3 6 7 9 12 10 14 9 7 7 6 7 7 5 6 5 3 5 6 9 11 13 14 14 16 17 17 15 14 12 12 14 13 13 12
8 1 8 13 0 5 10 19 22 9 8 6 8 17 3 5 3 6 8 6 4 5 4 2 4 4 6 8 10 11 12 14 14 15 16 16 16 16 15 13 15 14 14 12
9 5 4 6 4 2 9 12 12 21 1 13 13 14 2 6 11 2 6 4 5 5 6 4 5 7 8 10 11 11 12 13 13 15 16 17 16 16 16 14 14 14 14 13
3 7 11 16 11 3 9 17 19 18 9 20 19 27 28 16 9 10 11 8 6 7 7 8 7 9 9 10 9 10 13 13 13 15 16 16 16 16 14 13 13 13 13 14
2 6 17 25 23 11 8 11 22 23 28 23 29 27 36 24 20 21 20 22 16 15 12 12 12 12 12 11 10 13 14 13 14 15 16 16 13 15 13 13 12 12 13 13
6 4 4 20 24 19 22 16 14 25 28 24 31 29 34 27 21 19 17 14 15 16 18 17 11 12 12 14 14 14 15 15 15 16 16 16 14 13 13 13 13 13 13 13
3 6 4 14 17 14 18 25 25 23 23 24 24 32 24 24 21 19 18 16 20 21 20 18 15 12 10 11 10 13 13 11 14 14 12 13 13 13 13 13 13 13 14 14
7 2 1 7 2 15 8 17 24 27 29 26 22 25 28 26 20 12 15 17 19 17 16 16 15 13 10 7 9 9 8 11 12 12 12 11 12 13 13 14 14 13 12 13
20 12 8 9 12 15 16 9 7 10 22 23 26 30 32 28 15 26 22 19 21 19 16 10 10 10 9 8 5 6 7 9 10 12 12 13 13 13 13 13 13 12 11 11
20 20 16 16 19 24 18 16 4 3 11 21 18 27 26 21 12 20 3 4 8 5 4 6 7 8 8 6 3 7 7 8 10 10 10 10 11 12 13 13 13 11 11 11
4 7 18 18 15 11 13 25 4 8 10 9 6 18 19 12 14 10 4 3 2 4 8 8 8 9 8 6 3 4 5 8 7 7 8 9 10 11 11 10 9 10 10 9
12 9 7 7 10 9 3 4 10 2 6 11 16 9 9 8 8 6 3 5 6 7 6 5 7 6 7 4 1 3 4 3 5 7 8 8 9 7 8 11 10 10 11 11
17 12 10 10 10 3 4 5 7 5 5 17 15 17 8 9 5 6 3 3 6 5 6 4 3 2 4 5 2 2 3 6 7 7 7 8 9 9 10 12 12 10 10 9
4 5 6 5 5 11 9 9 9 5 13 17 12 8 5 10 6 7 5 3 3 3 4 2 1 3 4 4 4 5 5 5 7 8 8 8 8 9 8 7 8 9 9 8
9 6 5 9 11 12 13 8 6 8 10 11 6 7 9 8 11 9 4 1 1 2 1 0 2 4 4 5 8 6 5 6 8 8 8 8 7 8 8 6 6 6 8 10
11 11 7 9 13 13 15 6 3 6 9 9 9 7 4 7 9 3 1 0 3 5 4 5 5 5 5 7 8 6 5 5 6 7 7 6 6 7 6 6 5 7 6 7
Wind_Direction
45 205 213 226 222 241 120 210 249 230 137 262 254 266 266 271 268 259 258 256 253 249 245 230 218 208 206 205 203 204 200 199 192 191 191 196 194 189 197 202 188 172 164 158
164 226 232 106 167 188 214 253 256 279 193 234 278 277 275 264 259 255 258 255 251 252 244 230 216 209 206 204 205 204 205 198 197 196 195 201 183 178 191 190 190 173 170 169
216 181 159 176 176 200 224 235 247 266 328 234 291 269 260 256 257 261 257 255 258 253 253 241 215 212 210 210 204 205 203 201 200 198 181 154 107 102 173 197 183 178 176 160
245 180 170 182 211 202 241 212 235 255 283 272 276 289 280 275 263 246 257 248 250 248 250 250 231 214 211 215 208 205 202 201 200 196 191 193 190 185 203 180 163 180 181 163
199 180 195 214 219 190 236 131 179 176 242 305 204 256 257 264 268 255 249 253 255 257 253 241 230 226 218 207 202 204 202 202 197 196 203 198 197 202 181 167 156 176 180 171
304 10 193 199 95 182 139 96 77 85 248 262 238 233 257 251 246 276 259 259 261 267 255 249 258 246 233 214 204 199 201 206 202 199 202 202 198 195 187 169 172 176 173 176
178 213 173 175 116 91 213 170 203 221 198 250 79 239 248 263 259 242 274 288 295 243 248 243 221 207 206 201 207 210 202 206 205 205 207 206 204 195 198 182 184 172 179 190
209 230 184 181 215 177 197 201 210 228 212 262 110 240 258 234 277 284 273 267 276 262 239 245 227 213 207 200 199 202 210 209 205 206 209 207 208 201 204 195 186 192 193 184
191 242 186 220 174 181 175 216 253 269 106 292 249 263 271 238 256 239 256 266 276 265 238 248 239 218 198 197 204 205 206 212 207 209 206 203 199 202 198 190 196 195 187 173
217 257 172 145 160 188 215 149 187 213 226 234 251 260 257 280 294 271 252 267 283 266 249 244 244 232 205 205 197 203 209 211 209 211 208 203 201 198 188 178 191 188 181 174
219 246 133 166 205 179 182 214 219 242 220 244 259 253 259 255 262 281 303 305 305 310 258 221 222 193 212 213 218 205 205 207 206 209 208 204 197 189 185 187 194 188 181 170
206 263 252 232 100 255 240 226 209 213 207 248 272 264 152 257 247 305 321 297 285 311 294 293 261 227 214 217 216 215 212 207 208 204 205 206 200 193 188 189 192 184 182 171
175 176 239 256 207 203 229 213 223 228 53 222 227 254 105 263 266 301 283 293 275 278 278 252 222 225 223 225 219 214 221 211 202 205 204 201 201 196 193 191 187 187 180 170
352 181 223 238 246 115 208 224 213 205 221 235 236 250 259 238 259 259 263 261 261 262 247 248 240 236 234 234 229 228 226 216 202 204 206 206 201 196 189 186 184 179 176 171
297 236 235 248 257 255 248 220 214 215 226 223 247 240 258 257 256 260 278 285 285 269 262 242 234 233 229 226 228 232 229 212 201 207 209 209 201 197 186 180 178 175 177 179
205 244 273 253 256 250 255 257 238 220 230 239 246 253 251 261 262 263 261 265 271 270 274 272 240 236 224 225 223 222 225 213 201 207 211 205 199 187 184 176 174 175 180 178
225 181 207 261 259 255 242 237 242 245 239 236 238 244 264 266 260 261 265 254 253 260 266 272 273 267 250 242 230 227 226 204 199 204 201 197 188 186 182 173 173 180 184 175
226 236 234 249 255 252 249 251 236 240 245 242 246 255 256 256 271 268 246 258 265 263 263 266 271 278 276 252 238 238 199 192 193 200 198 191 187 187 180 177 180 178 179 183
207 228 252 255 250 282 285 272 206 216 250 245 246 252 257 265 285 274 261 248 255 265 272 270 275 281 280 267 243 193 183 188 192 201 199 191 188 183 179 183 179 173 170 177
224 224 225 240 250 259 253 248 211 196 257 255 234 244 253 260 245 262 245 196 238 258 292 302 300 292 284 288 218 175 187 187 202 198 197 185 181 178 178 175 175 175 173 169
174 216 226 237 249 253 258 273 144 226 290 339 263 229 250 245 232 275 25 321 324 332 315 317 304 293 307 314 187 194 176 201 181 158 154 162 170 171 170 164 160 156 153 145
260 254 245 235 233 247 20 136 226 24 339 338 315 295 281 276 309 294 307 284 304 314 324 327 313 322 340 340 176 158 191 138 134 138 143 150 150 148 148 145 143 148 141 143
241 232 250 245 259 164 224 243 251 192 272 290 288 291 279 281 275 284 270 290 303 319 317 327 303 341 6 355 347 164 129 133 121 117 120 129 133 137 144 142 143 144 153 158
290 265 253 332 259 283 287 273 257 276 235 237 245 274 280 274 275 278 284 265 287 335 314 316 269 78 64 27 40 77 96 102 108 112 118 126 127 132 137 141 149 152 161 163
266 292 251 269 268 278 273 254 245 255 268 274 252 239 253 270 266 255 261 295 306 290 250 74 103 82 62 79 80 86 109 121 119 117 123 127 131 137 142 143 158 169 179 180
225 233 247 263 279 276 275 297 268 282 298 308 287 280 225 238 267 239 117 312 221 187 141 99 76 81 67 69 65 36 50 103 125 130 139 142 140 141 136 131 99 100 141 168